Location: Poughquag
(41.6090°N, 73.6820°W)
Time: 11:49:51
(UTC-05:00)

SR - Pass Details

Date: 10 December 2023
Orbit: 574 x 867 km, 66.7° (Epoch: 29 February)

Event Time Altitude Azimuth Distance (km) Brightness Sun altitude
Rises 09:06:07 0° 183° (S) 3,228 ? 15.4°
Reaches altitude 10° 09:08:36 10° 175° (S) 2,349 ? 15.7°
Maximum altitude 09:13:31 36° 110° (ESE) 1,293 ? 16.3°
Drops below altitude 10° 09:18:44 10° 46° (NE) 2,491 ? 16.9°
Sets 09:21:26 0° 38° (NE) 3,449 ? 17.2°
